Location: Sawmill Trailhead
(33.5800°N, 116.4497°W)
Time: 11:48:54
(UTC-07:00)

Uosat F - Visible Passes

Search period start: 24 October 2014 00:00
Search period end: 02 November 2014 23:00
Orbit: 752 x 761 km, 98.7° (Epoch: 23 October)

Date Brightness Start Highest point End Pass type
(mag) Time Alt. Az. Time Alt. Az. Time Alt. Az.
24 Oct 12.4 04:41:52 10° NNE 04:46:34 38° E 04:51:14 10° SSE visible
24 Oct 12.3 06:21:23 10° NNW 06:25:02 20° WNW 06:28:40 10° WSW visible
25 Oct 13.9 04:04:22 10° ENE 04:07:11 15° E 04:09:58 10° SE visible
25 Oct 11.2 05:41:18 10° N 05:46:11 50° WNW 05:51:01 10° SSW visible
26 Oct 11.5 05:02:05 10° NNE 05:07:06 63° ESE 05:12:05 10° S visible
27 Oct 13.2 04:23:45 10° NE 04:27:49 24° E 04:31:52 10° SSE visible
27 Oct 11.8 06:02:09 10° N 06:06:33 31° WNW 06:10:56 10° SW visible
28 Oct 10.9 05:22:31 10° N 05:27:35 79° WNW 05:32:36 10° SSW visible
29 Oct 12.3 04:43:41 10° NNE 04:48:24 39° E 04:53:06 10° SSE visible
29 Oct 12.3 06:23:17 10° NNW 06:26:51 20° WNW 06:30:25 10° WSW visible
30 Oct 13.8 04:06:07 10° ENE 04:09:01 15° E 04:11:55 10° SE visible
30 Oct 11.2 05:43:09 10° N 05:48:00 48° WNW 05:52:49 10° SW visible
31 Oct 11.4 05:03:54 10° NNE 05:08:56 65° ESE 05:13:55 10° S visible
01 Nov 13.1 04:25:32 10° NE 04:29:39 25° E 04:33:45 10° SSE visible
01 Nov 11.8 06:04:00 10° N 06:08:22 30° WNW 06:12:42 10° SW visible
02 Nov 10.9 04:24:21 10° N 04:29:24 77° WNW 04:34:25 10° SSW visible
